Time,TemperatureF,DewpointF,PressureIn,WindDirection,WindDirectionDegrees,WindSpeedMPH,WindSpeedGustMPH,Humidity,HourlyPrecipIn,Conditions,Clouds,dailyrainin,SoftwareType,DateUTC
2013-02-06 00:00:00,41.3,23.6,29.62,NW,318,12.0,12.0,49,0.00,,SKC,0.00,VWS V12.07,2013-02-06 08:00:00,
2013-02-06 01:00:00,40.9,22.2,29.61,NW,315,3.0,13.0,47,0.00,,SKC,0.00,VWS V12.07,2013-02-06 09:00:00,
2013-02-06 02:02:00,41.5,23.3,29.60,NW,309,17.0,17.0,48,0.00,,SKC,0.00,VWS V12.07,2013-02-06 10:02:00,
2013-02-06 03:02:00,40.3,21.2,29.59,NW,310,5.0,18.0,46,0.00,,SKC,0.00,VWS V12.07,2013-02-06 11:02:00,
2013-02-06 04:02:00,39.8,21.2,29.58,NNW,337,4.0,19.0,47,0.00,,SKC,0.00,VWS V12.07,2013-02-06 12:02:00,
2013-02-06 05:02:00,40.3,21.7,29.57,NW,306,25.0,25.0,47,0.00,,SKC,0.00,VWS V12.07,2013-02-06 13:02:00,
2013-02-06 06:03:00,40.1,21.5,29.59,NW,309,9.0,23.0,47,0.00,,SKC,0.00,VWS V12.07,2013-02-06 14:03:00,
2013-02-06 07:00:00,40.2,19.5,29.60,WNW,294,6.0,16.0,43,0.00,,SKC,0.00,VWS V12.07,2013-02-06 15:00:00,
2013-02-06 08:01:00,42.3,11.5,29.61,NW,317,0.0,9.0,28,0.00,,SKC,0.00,VWS V12.07,2013-02-06 16:01:00,
2013-02-06 09:00:00,46.4,2.7,29.61,NW,305,12.0,16.0,16,0.00,,SKC,0.00,VWS V12.07,2013-02-06 17:00:00,
2013-02-06 10:03:00,49.9,11.5,29.62,NNW,348,6.0,7.0,21,0.00,,SKC,0.00,VWS V12.07,2013-02-06 18:03:00,
2013-02-06 11:03:00,49.9,13.6,29.62,NNW,341,4.0,9.0,23,0.00,,SKC,0.00,VWS V12.07,2013-02-06 19:03:00,
2013-02-06 12:01:00,52.8,7.9,29.62,NNW,339,0.0,0.0,16,0.00,,SKC,0.00,VWS V12.07,2013-02-06 20:01:00,
2013-02-06 13:00:00,49.5,9.0,29.62,East,85,3.0,7.0,19,0.00,,SKC,0.00,VWS V12.07,2013-02-06 21:00:00,
2013-02-06 14:01:00,49.8,16.3,29.62,ENE,76,12.0,12.0,26,0.00,,SKC,0.00,VWS V12.07,2013-02-06 22:01:00,
2013-02-06 15:01:00,49.6,17.9,29.63,ENE,71,0.0,7.0,28,0.00,,SKC,0.00,VWS V12.07,2013-02-06 23:01:00,
2013-02-06 16:01:00,48.2,19.7,29.64,ENE,74,0.0,1.0,32,0.00,,SKC,0.00,VWS V12.07,2013-02-07 00:01:00,
2013-02-06 17:01:00,45.8,21.0,29.65,ENE,76,2.0,5.0,37,0.00,,SKC,0.00,VWS V12.07,2013-02-07 01:01:00,
2013-02-06 18:01:00,43.9,21.7,29.66,East,81,9.0,11.0,41,0.00,,SKC,0.00,VWS V12.07,2013-02-07 02:01:00,
2013-02-06 19:01:00,42.9,20.8,29.68,East,90,9.0,11.0,41,0.00,,SKC,0.00,VWS V12.07,2013-02-07 03:01:00,
2013-02-06 20:01:00,44.1,16.9,29.69,ENE,69,7.0,8.0,33,0.00,,SKC,0.00,VWS V12.07,2013-02-07 04:01:00,
2013-02-06 21:01:00,44.2,17.6,29.70,ENE,67,4.0,7.0,34,0.00,,SKC,0.00,VWS V12.07,2013-02-07 05:01:00,
2013-02-06 22:01:00,43.8,19.2,29.71,ENE,65,2.0,4.0,37,0.00,,SKC,0.00,VWS V12.07,2013-02-07 06:01:00,
2013-02-06 23:01:00,44.2,14.8,29.71,ENE,65,5.0,5.0,30,0.00,,SKC,0.00,VWS V12.07,2013-02-07 07:01:00,